Wind_Speed
13 16 18 18 18 20 23 26 29 33 36 39 42 45 48 51 54 58 60 63 66 68 70 70 70 68 65 62 59 55 51 47 45 43 42 41 40 41 42 44 48 52 57 62
14 17 18 17 19 22 25 28 31 34 37 40 44 47 50 54 58 61 63 65 67 69 69 67 65 61 57 54 50 46 42 40 39 37 35 34 31 30 31 32 34 36 39 45
14 17 19 19 22 25 29 32 34 38 41 44 47 49 53 57 61 64 65 67 67 66 64 61 58 54 51 47 44 42 40 39 38 36 35 33 32 31 31 30 30 29 30 31
19 21 22 23 27 30 34 36 38 42 45 48 51 53 56 60 63 64 65 64 63 61 59 55 52 50 48 46 44 43 41 40 40 39 38 36 35 34 34 33 32 32 31 31
24 26 27 29 31 34 37 39 42 45 48 50 53 55 57 60 62 63 63 63 61 59 55 53 51 50 49 47 46 45 44 43 42 41 41 40 39 38 36 35 34 33 32 31
25 28 30 31 33 36 40 41 45 48 51 54 57 61 62 63 64 64 63 61 59 56 54 54 53 52 51 51 49 48 46 44 44 44 43 42 41 39 38 37 36 34 33 31
26 29 31 33 35 38 40 44 47 51 54 57 60 63 64 64 63 62 60 58 56 55 55 55 55 54 53 51 50 48 48 47 46 45 44 42 41 40 38 37 35 34 32 30
28 30 32 34 37 40 43 47 51 54 56 59 61 62 63 63 61 59 58 56 56 56 55 55 55 54 53 52 49 47 45 45 44 43 42 41 39 38 36 35 34 32 30 29
28 30 33 36 39 43 46 49 52 54 57 59 61 62 62 61 59 57 57 56 57 57 56 54 53 52 50 48 45 43 41 40 40 39 37 36 35 34 34 33 32 30 28 26
27 30 34 37 40 42 45 48 51 54 57 60 61 61 62 58 56 56 56 57 57 56 55 53 51 49 47 44 42 39 36 35 34 33 32 31 30 30 30 29 29 28 26 24
28 31 34 36 39 42 45 48 51 54 57 59 60 61 59 56 55 55 56 57 57 56 55 52 49 46 43 40 37 34 31 29 28 27 27 27 26 26 26 26 25 25 24 22
30 32 35 37 40 43 47 50 52 55 57 58 60 61 57 54 54 55 56 56 56 55 53 50 47 43 39 36 34 31 27 24 22 20 20 20 20 21 22 23 23 22 21 20
30 33 35 38 41 45 48 50 53 56 58 58 59 59 54 52 53 54 55 55 55 54 52 49 47 43 38 35 32 29 25 19 16 13 11 12 14 16 17 19 20 20 19 17
30 33 35 38 41 45 48 51 53 55 57 57 58 56 52 51 51 52 53 54 53 52 51 49 47 43 38 35 32 28 23 16 11 7 4 5 8 12 14 16 17 17 17 16
31 33 35 39 42 46 49 51 52 54 55 56 57 55 50 49 50 51 51 51 51 51 49 48 46 43 39 34 32 28 23 17 11 6 2 2 6 9 12 15 16 17 16 14
32 33 36 39 42 46 49 50 52 54 55 56 56 54 49 47 48 49 49 49 50 50 48 47 45 43 39 35 32 29 26 20 15 10 6 6 8 11 14 15 16 16 15 13
32 34 36 39 42 46 49 51 53 54 55 55 54 53 48 45 45 45 45 46 47 47 47 46 45 42 39 36 32 29 27 24 19 15 12 10 11 13 15 16 16 16 15 15
32 35 37 40 43 46 49 51 52 53 54 54 53 52 47 43 42 42 42 43 43 44 44 44 43 42 39 36 32 29 27 25 21 18 15 14 14 15 16 17 18 18 18 19
34 36 38 41 43 46 49 50 52 53 53 53 51 50 46 42 39 39 39 39 39 40 41 42 41 40 39 36 33 30 28 25 23 21 19 18 18 18 19 20 20 21 22 23
35 37 39 41 44 46 48 49 50 51 51 51 50 48 45 41 36 35 35 36 36 38 39 39 39 38 37 36 33 31 29 26 24 23 22 21 21 22 23 24 24 24 26 26
37 38 40 42 44 46 47 48 49 50 50 49 48 46 44 40 35 32 31 32 33 34 35 36 36 36 36 35 33 32 30 28 27 25 24 24 24 24 25 25 26 27 27 28
38 40 41 43 44 46 47 47 48 48 48 47 46 44 41 38 33 30 29 29 29 30 31 32 33 33 33 33 33 32 30 28 27 26 25 25 25 25 26 26 26 27 28 29
40 41 42 43 44 45 46 46 47 47 46 45 44 42 40 37 32 27 25 25 25 25 27 28 29 29 29 29 30 30 30 29 27 26 25 25 25 25 25 25 26 27 28 28
42 42 43 44 44 44 45 45 45 45 45 44 43 40 38 36 32 27 23 22 21 21 22 24 24 25 25 25 26 27 27 28 28 27 26 26 26 26 26 26 27 27 28 28
43 43 44 44 44 44 44 43 43 42 42 42 41 39 37 34 31 26 22 19 18 18 18 19 19 20 21 21 22 22 23 24 25 26 26 27 27 27 27 27 28 28 28 28
44 44 44 44 44 43 42 42 41 40 39 39 38 37 35 33 30 25 21 17 16 15 14 14 15 15 16 17 18 18 20 21 21 22 23 24 24 24 24 25 25 25 25 25
43 43 43 43 43 42 41 40 39 38 37 37 36 34 33 32 29 25 20 16 13 12 11 11 10 10 11 12 13 14 15 16 17 18 18 19 19 19 19 20 20 21 21 21
Wind_Direction
336 332 335 334 330 326 324 324 324 324 323 322 322 321 320 319 317 316 315 314 312 310 308 306 305 303 302 301 299 297 295 293 291 289 287 284 281 277 272 268 265 262 259 256
336 334 339 338 331 328 326 326 325 324 323 322 322 322 321 320 318 316 315 313 312 310 309 308 306 305 303 302 300 297 294 291 290 288 286 284 281 279 277 274 271 268 264 261
340 340 338 337 333 330 328 329 329 328 326 325 324 324 324 321 319 318 317 315 313 312 311 309 307 305 303 301 298 295 292 290 287 285 284 282 279 277 275 273 273 272 271 268
341 339 340 339 336 334 332 332 332 330 329 328 327 327 326 322 320 319 317 316 315 314 312 310 309 306 303 300 296 293 289 287 283 282 280 279 277 275 274 273 272 271 271 269
340 338 336 337 337 334 333 334 333 331 330 329 328 327 327 324 322 321 320 319 318 317 315 312 309 306 302 298 295 291 288 285 282 280 278 276 274 272 272 271 271 270 269 268
333 333 334 335 335 335 334 333 333 332 331 331 331 330 330 328 327 325 323 322 320 318 315 312 309 306 303 299 294 290 287 284 281 279 277 275 272 270 268 268 268 267 267 266
329 331 332 334 334 334 333 335 335 335 335 334 333 332 331 330 328 326 326 325 323 321 318 314 311 308 305 301 297 291 286 283 280 278 276 274 271 268 266 264 264 264 262 261
328 329 331 332 333 335 337 338 338 337 336 334 333 332 332 331 330 330 329 328 326 324 322 319 315 312 309 305 300 294 289 284 281 278 275 272 269 265 262 260 258 258 256 256
326 327 329 333 337 339 339 339 338 336 335 335 334 334 334 333 333 333 333 331 330 328 326 324 320 317 314 310 306 300 294 288 283 279 274 270 266 261 257 255 253 251 251 251
324 329 333 337 338 338 338 337 337 337 336 336 336 337 337 337 337 337 337 336 335 333 331 329 326 323 319 315 311 306 300 293 287 280 274 268 263 258 253 249 246 244 244 245
328 332 334 335 336 337 338 338 338 338 338 338 339 339 339 339 340 341 341 341 340 338 337 336 333 329 327 324 321 314 307 299 292 283 274 265 259 253 247 241 238 237 237 237
330 332 333 335 337 338 339 339 339 340 340 341 341 342 342 342 344 345 345 345 345 344 344 343 342 339 337 335 332 327 319 308 299 288 274 262 253 245 238 232 229 228 228 227
329 331 333 335 338 339 340 340 341 342 342 343 344 344 344 345 347 348 348 349 349 350 350 351 351 350 348 346 344 340 334 323 310 297 277 255 240 228 223 219 217 216 213 212
329 332 334 336 338 339 340 341 342 343 343 344 345 346 347 348 349 351 352 353 354 355 357 357 358 358 356 355 354 352 350 345 335 318 291 239 215 207 202 199 198 195 194 195
329 332 334 336 338 339 341 342 343 344 345 346 347 348 348 350 352 354 355 357 358 360 1 2 4 4 5 6 7 9 10 10 9 9 25 155 172 174 175 175 176 176 177 180
329 332 334 336 338 339 340 341 343 345 347 348 349 350 350 352 354 356 357 359 1 3 6 7 8 9 11 14 17 19 23 27 33 45 71 114 139 149 155 159 162 165 167 169
328 331 333 335 336 338 340 341 344 346 348 349 350 351 352 353 355 358 360 2 4 6 8 11 13 15 17 20 23 26 30 35 42 55 75 100 123 137 145 148 152 156 157 154
326 328 330 333 335 337 339 341 344 346 348 349 350 351 352 353 356 359 2 4 6 8 11 14 17 18 21 24 28 31 35 40 47 56 72 91 111 126 136 140 143 143 142 140
324 327 329 331 334 336 338 341 343 345 347 349 350 351 353 354 355 359 3 5 8 11 14 17 20 23 26 28 32 35 38 44 51 62 76 90 103 115 125 130 132 133 134 135
321 324 326 329 332 334 337 339 341 344 346 348 349 351 352 353 355 358 2 5 8 12 16 20 23 26 30 33 37 40 44 50 58 69 78 88 100 110 118 122 125 127 129 130
318 321 324 327 329 331 334 336 339 342 344 346 348 350 351 353 354 357 1 4 8 12 17 21 25 28 32 36 40 44 49 56 63 72 81 90 99 108 115 120 123 124 126 127
315 318 321 323 325 328 330 333 336 339 342 344 346 348 350 352 352 354 358 3 7 12 17 21 25 29 33 38 43 47 52 58 66 73 82 90 97 104 111 116 120 122 124 126
311 314 317 319 321 324 327 330 333 336 339 341 344 347 349 350 351 352 354 359 5 11 17 21 25 30 35 39 45 50 54 59 66 74 83 91 97 103 109 114 118 121 123 126
307 310 313 315 317 320 323 326 329 332 335 338 342 345 348 349 349 349 350 354 360 7 15 22 26 30 35 40 46 52 57 63 69 75 82 90 96 102 107 112 116 119 121 124
304 307 309 311 313 316 319 322 325 328 331 335 339 342 345 348 348 346 345 349 355 1 10 20 26 31 36 42 48 54 59 66 72 77 82 88 95 100 104 108 112 117 120 123
301 303 305 307 309 311 315 318 321 324 328 332 336 339 341 345 346 344 341 341 346 353 2 13 22 30 36 44 51 58 64 69 75 80 84 88 93 99 103 108 113 117 121 124
297 298 300 302 305 308 311 314 317 320 324 328 332 336 339 342 344 342 338 334 334 341 349 359 11 22 34 45 56 63 70 76 81 84 87 91 94 98 104 110 115 120 124 127
Height
5850 5847 5844 5841 5838 5835 5831 5827 5822 5817 5811 5805 5798 5791 5783 5775 5765 5756 5747 5737 5727 5716 5705 5695 5684 5674 5665 5656 5648 5641 5635 5629 5625 5620 5617 5614 5612 5611 5610 5611 5612 5615 5617 5621
5849 5845 5843 5840 5836 5831 5827 5823 5818 5812 5806 5798 5791 5783 5774 5764 5754 5744 5734 5723 5711 5699 5687 5676 5665 5656 5647 5639 5632 5626 5621 5616 5612 5608 5605 5603 5600 5599 5598 5597 5597 5598 5599 5601
5847 5843 5840 5837 5833 5827 5822 5817 5811 5804 5798 5789 5782 5774 5764 5752 5741 5729 5718 5706 5693 5681 5670 5659 5649 5640 5632 5625 5619 5613 5608 5604 5600 5597 5594 5592 5590 5589 5588 5587 5587 5587 5588 5588
5842 5840 5836 5835 5827 5821 5815 5809 5803 5795 5788 5779 5770 5762 5752 5739 5727 5715 5703 5690 5677 5665 5654 5643 5634 5625 5618 5611 5605 5600 5595 5591 5587 5584 5582 5580 5579 5578 5577 5577 5577 5577 5577 5578
5838 5834 5831 5827 5821 5815 5808 5802 5795 5787 5779 5770 5760 5751 5743 5728 5714 5700 5686 5673 5661 5649 5638 5628 5619 5610 5603 5596 5590 5585 5580 5576 5573 5570 5568 5567 5566 5565 5565 5565 5565 5566 5566 5567
5834 5830 5825 5822 5816 5809 5802 5795 5787 5778 5769 5759 5748 5735 5726 5712 5698 5685 5671 5658 5646 5635 5624 5614 5604 5595 5586 5579 5573 5568 5563 5559 5556 5554 5552 5551 5551 5551 5552 5552 5553 5554 5555 5556
5830 5825 5821 5816 5809 5803 5797 5790 5779 5769 5758 5747 5735 5724 5711 5699 5686 5672 5659 5646 5633 5621 5609 5598 5587 5577 5568 5561 5554 5549 5544 5541 5539 5537 5535 5535 5535 5536 5537 5539 5540 5542 5543 5545
5825 5820 5817 5810 5803 5796 5789 5779 5769 5759 5749 5739 5728 5716 5702 5689 5674 5660 5647 5634 5621 5608 5596 5583 5571 5560 5551 5542 5535 5529 5525 5522 5520 5519 5518 5518 5519 5521 5523 5525 5527 5530 5532 5534
5821 5817 5810 5803 5795 5788 5779 5771 5762 5753 5742 5731 5719 5706 5693 5678 5664 5650 5636 5623 5609 5596 5583 5570 5556 5544 5534 5525 5518 5512 5507 5504 5502 5501 5501 5502 5504 5506 5509 5512 5515 5519 5522 5524
5816 5810 5803 5797 5790 5783 5775 5767 5757 5747 5735 5723 5710 5697 5683 5668 5655 5641 5627 5613 5599 5585 5571 5557 5544 5531 5520 5510 5503 5496 5492 5489 5486 5486 5486 5487 5489 5493 5496 5500 5504 5508 5512 5516
5811 5805 5800 5794 5787 5779 5771 5762 5752 5741 5729 5715 5702 5688 5674 5660 5647 5634 5620 5605 5590 5575 5560 5546 5533 5520 5509 5499 5491 5484 5479 5476 5473 5472 5473 5475 5477 5481 5485 5490 5495 5499 5504 5508
5806 5800 5794 5788 5781 5773 5765 5755 5745 5733 5722 5708 5694 5681 5667 5654 5640 5627 5613 5598 5584 5568 5553 5539 5525 5513 5502 5492 5483 5476 5470 5466 5464 5463 5463 5465 5468 5472 5476 5482 5487 5492 5497 5501
5801 5795 5788 5782 5774 5767 5758 5749 5738 5727 5714 5701 5688 5675 5661 5648 5635 5622 5608 5593 5579 5564 5549 5534 5521 5509 5498 5488 5479 5472 5465 5461 5458 5457 5457 5458 5461 5465 5470 5476 5481 5487 5492 5497
5795 5790 5783 5777 5770 5762 5753 5743 5733 5721 5709 5696 5683 5670 5656 5644 5632 5618 5605 5591 5576 5562 5547 5533 5520 5508 5497 5487 5478 5470 5463 5458 5456 5455 5455 5456 5459 5463 5467 5473 5478 5484 5490 5494
5789 5784 5778 5771 5764 5756 5747 5738 5728 5717 5705 5692 5679 5666 5653 5641 5629 5616 5603 5590 5576 5562 5548 5535 5522 5510 5499 5489 5480 5472 5465 5460 5457 5456 5456 5458 5460 5463 5468 5473 5478 5484 5489 5494
5784 5778 5772 5766 5759 5751 5742 5733 5723 5712 5700 5687 5675 5663 5650 5639 5627 5615 5603 5590 5578 5565 5551 5538 5525 5514 5503 5494 5485 5478 5471 5466 5462 5460 5460 5461 5463 5467 5471 5475 5480 5485 5490 5494
5778 5773 5767 5761 5754 5746 5737 5727 5717 5706 5695 5683 5671 5660 5648 5638 5627 5616 5604 5592 5580 5568 5555 5543 5531 5519 5509 5500 5492 5485 5479 5474 5470 5467 5466 5466 5468 5471 5475 5479 5484 5488 5492 5496
5772 5767 5761 5755 5748 5740 5731 5722 5712 5702 5691 5680 5669 5658 5647 5637 5627 5617 5606 5595 5584 5573 5561 5549 5538 5527 5517 5508 5500 5493 5487 5483 5479 5475 5474 5473 5474 5477 5480 5484 5488 5492 5496 5500
5765 5760 5754 5748 5741 5734 5726 5717 5708 5698 5688 5678 5667 5657 5646 5636 5627 5617 5608 5598 5589 5579 5568 5557 5546 5535 5526 5517 5509 5503 5497 5492 5488 5485 5483 5482 5483 5484 5487 5491 5494 5498 5502 5506
5758 5753 5747 5741 5735 5728 5720 5712 5704 5695 5685 5676 5666 5656 5646 5636 5627 5619 5610 5601 5592 5583 5573 5564 5554 5545 5536 5527 5520 5513 5507 5502 5498 5495 5493 5492 5493 5494 5496 5499 5502 5506 5510 5513
5751 5746 5740 5735 5728 5722 5715 5707 5699 5691 5682 5673 5664 5654 5645 5636 5627 5620 5613 5605 5597 5588 5580 5571 5563 5554 5545 5538 5531 5524 5518 5513 5509 5506 5505 5504 5504 5505 5506 5509 5512 5515 5518 5522
5743 5738 5733 5728 5722 5716 5709 5702 5695 5687 5679 5671 5662 5653 5644 5636 5628 5621 5614 5607 5600 5593 5585 5578 5570 5562 5555 5548 5542 5536 5530 5525 5521 5518 5516 5516 5515 5516 5517 5520 5522 5525 5529 5532
5735 5730 5726 5721 5715 5709 5703 5697 5690 5682 5675 5668 5659 5651 5643 5635 5627 5621 5615 5610 5603 5596 5590 5583 5577 5570 5564 5559 5553 5547 5542 5537 5533 5530 5528 5528 5528 5528 5529 5531 5533 5536 5539 5542
5726 5722 5717 5713 5708 5703 5697 5691 5684 5678 5671 5663 5656 5648 5641 5634 5626 5620 5615 5610 5605 5600 5594 5588 5583 5578 5573 5568 5563 5558 5553 5549 5546 5543 5541 5539 5539 5540 5541 5542 5544 5546 5549 5552
5716 5712 5708 5704 5700 5695 5690 5685 5679 5673 5666 5659 5652 5645 5638 5632 5625 5619 5614 5610 5606 5602 5597 5592 5588 5584 5579 5575 5571 5567 5564 5560 5558 5555 5553 5552 5551 5551 5552 5553 5555 5557 5559 5562
5706 5703 5699 5695 5691 5687 5683 5678 5673 5667 5661 5655 5649 5642 5636 5629 5623 5617 5613 5609 5606 5602 5599 5595 5592 5588 5584 5581 5578 5575 5572 5570 5568 5566 5564 5563 5563 5563 5563 5564 5565 5567 5569 5571
5695 5692 5689 5686 5682 5678 5675 5670 5666 5661 5656 5650 5645 5639 5633 5627 5621 5615 5611 5607 5605 5602 5599 5597 5594 5591 5588 5586 5583 5581 5579 5577 5575 5574 5573 5573 5572 5572 5573 5573 5574 5576 5577 5579